STARLINK-3699, 51966

Orbit data source: Space-Track

STARLINK-3699, 51966 is a payload satellite owned by SpaceX/Seattle (US) in LEO that was launched on Wed, 09 Mar 2022 UTC via an FALCON 9 launch vehicle from the Air Force Eastern Test Range (AFETR). Payload-class satellites include a variety of spacecraft equipped with specific instruments for various scientific and technological missions. These include communications satellites like Starlink; space stations such as the ISS; scientific satellites like the Hubble; Earth observation satellites from companies like Planet Labs, Umbra, and HawkEye 360; GPS; miniature CubeSats for education and research; and military/defense satellites.

Loading next visibility...
Identifier
51966, 2022-025L
Orbit
LEO
Country
Flag of USUS
Related business
Manufacturer
SpaceX/Seattle
Mission
Operational Commercial Communications
Bus & Motor
STARLINK, Unknown motor
Mass
297 kg wet, ~275 kg dry
Launch date (UTC)
2022-03-09 (4 years ago)
Launch vehicle
FALCON 9
Launch site
Air Force Eastern Test Range (AFETR)
Object type
Payload
Rocket body
Debris
Shape & HBR
Box + 1 Pan, 10.1 m
Radar Cross Section
13.562 m², Large (>1 m²)

Expand to show TLE details & history
Last TLE update: 2 days ago

TLE from 2 days ago
0 STARLINK-3699
1 51966U 22025L   26171.33188840  .00000195  00000-0  18035-4 0  9996
2 51966  53.1613 279.4687 0001295  72.1537 287.9605 15.31701551236550
Epoch: 2026-06-20T07:57Z
TLE epoch observation values (Epoch: 2026-06-20T07:57:55.157Z)
Latitude
-0.00009°
Longitude
-108.55922°
Altitude
471.362 km
Speed
7.632 km/s
True Right ascension
18h 37m 52s
True Declination
0° 00' 00"
Sunlit
Object was in full shadow at epoch
Visualization orbit readout
Latitude
Unknown
Longitude
Unknown
Altitude
Unknown
Speed
Unknown
Apparent Right ascension
Unknown
Apparent Declination
Unknown
Sunlit
N/A
Visualization observer readout
Local Sidereal Time
21:40:48
Azimuth
Unknown
Elevation
Unknown
Doppler factor
Unknown
Orbital elements
Apogee altitude
471.879 km
Perigee altitude
470.105 km
Semi-major axis
6,849.129 km
Eccentricity
0.00013
Inclination
53.1613°
RAAN
279.4687°
Arg. of periapsis
72.1537°
True anomaly
287.94638°
Mean anomaly
287.9605°
Eccentric anomaly
287.95344°
Mean motion
3.82904 °/min
Orbital period
94.02 mins
BSTAR
0.000018035
Loading maneuver chart data...
Computing Atmospheric mass density...
Loading historical data...
Loading historical data...
Loading historical data...
Loading historical data...
Loading historical data...
Loading historical data...
Loading historical data...

Documentation

Showing up to 5 results
|